Regional Weather Roundup
Issued by NWS

Home | Current Version | Previous Version | Graphics & Text | Print | Product List | Glossary On
Versions: 1 2 3 4 5 6 7 8 9 10 11 12 13 14 15 16 17 18 19 20 21 22 23 24 25 26 27 28 29 30 31 32 33 34 35 36 37 38 39 40 41 42 43 44 45 46 47 48 49 50
000
ASUS43 KLSX 170807
RWRMO

WEATHER SUMMARY FOR MISSOURI
NATIONAL WEATHER SERVICE SPRINGFIELD MO
300 AM CDT TUE OCT 17 2017

NOTE: "FAIR" INDICATES FEW OR NO CLOUDS BELOW 12,000 FEET WITH NO
       SIGNIFICANT WEATHER AND/OR OBSTRUCTIONS TO VISIBILITY.
       CURRENT SKY AND/OR WEATHER CONDITIONS ARE NOT AVAILABLE FOR
       CHILLICOTHE AND FARMINGTON.

MOZ001>031-035>038-043-044-053-054-170900-
...NORTHERN AND WESTERN MISSOURI...

CITY           SKY/WX    TMP DP  RH WIND       PRES   REMARKS
KANSAS CTY INT MOCLDY    52  41  66 S12       30.21F
KANSAS C DTWN  PTCLDY    54  42  64 S8        30.22S
LEE`S SUMMIT   CLOUDY    53  41  63 S10       30.24R
ST JOSEPH      CLOUDY    51  43  74 S7        30.20S
CHILLICOTHE      N/A     49  42  77 S3        30.24R
KIRKSVILLE     PTCLDY    49  43  80 SW7       30.23S

$$
MOZ066>068-077>081-088>096-101>105-170900-
...SOUTHWEST MISSOURI...

CITY           SKY/WX    TMP DP  RH WIND       PRES   REMARKS
SPRINGFIELD    CLEAR     44  39  82 S3        30.28R
JOPLIN         CLEAR     45  42  89 CALM      30.28S
BRANSON        CLEAR     41  37  87 CALM      30.30S

$$
MOZ032>034-039>042-045>050-055>058-069>072-170900-
...CENTRAL MISSOURI...

CITY           SKY/WX    TMP DP  RH WIND       PRES   REMARKS
COLUMBIA       CLOUDY    46  40  79 S7        30.27S
JEFFERSON CITY CLOUDY    43  40  89 E5        30.28S
ROLLA          CLEAR     45  37  73 S8        30.29S
SEDALIA        CLOUDY    50  43  77 S7        30.27S
WHITEMAN AFB   PTCLDY    45  41  84 S7        30.21F
WARRENSBURG    CLOUDY    46  41  81 S6        30.25S
OSAGE BEACH    CLEAR     41  39  93 CALM      30.30R

$$
MOZ051-052-059>065-170900-
...EAST CENTRAL MISSOURI...

CITY           SKY/WX    TMP DP  RH WIND       PRES   REMARKS
ST LOUIS INTL  PTCLDY    52  38  58 SW8       30.28F
SPIRIT OF STL  CLEAR     41  41 100 CALM      30.28S
ST CHARLES     CLEAR     42  41  96 NE3       30.28S

$$
MOZ072>076-082>087-097>100-106>115-170900-
...SOUTH CENTRAL AND SOUTHEAST MISSOURI...

CITY           SKY/WX    TMP DP  RH WIND       PRES   REMARKS
CAPE GIRARDEAU PTCLDY    36  34  92 W3        30.32S
FARMINGTON     CLEAR     39  37  92 CALM      30.32S
POPLAR BLUFF   CLEAR     39  38  96 NW3       30.32S
WEST PLAINS    CLEAR     39  36  89 CALM      30.32S

$$


USA.gov is the U.S. government's official web portal to all federal, state and local government web resources and services.